User: anonymous   Login
Location: Spradlin Observatory
(33.4706°N, 86.3221°W)
Time: 01:08:26
(UTC-05:00)
Language:

COSMOS 2406 - Orbit

View from above orbital plane
View from above orbital plane
View from above satellite
View from above satellite

Ground track
Ground track

The orbit data is extracted from the following two-line orbital elements,

1 28352U 04021A   17234.57614793 +.00000049 +00000-0 +52843-4 0  9995
2 28352 071.0082 346.0766 0014754 350.3428 009.7407 14.11641819680173
Epoch (UTC): 22 August 2017 13:49:39
Eccentricity: 0.0014754
inclination: 71.0082°
perigee height: 843 km
apogee height: 864 km
right ascension of ascending node: 346.0766°
argument of perigee: 350.3428°
revolutions per day: 14.11641819
mean anomaly at epoch: 9.7407°
orbit number at epoch: 68017

The dashed part of the orbit path shows where the satellite is in the earth's shadow,  

DLR